Miscellaneous Local Product
Issued by NWS Hastings, NE

Home | Current Version | Previous Version | Graphics & Text | Print | Product List | Glossary On
Versions: 1 2 3 4 5 6 7 8 9 10 11 12 13 14 15 16 17 18 19 20 21 22 23 24 25 26 27 28 29 30 31 32 33 34 35 36 37 38 39 40 41 42 43 44 45 46 47 48 49 50
000
AXUS43 KGID 261502
MISGRI

GID CWA HOURLY WEATHER ROUNDUP
NATIONAL WEATHER SERVICE HASTINGS NE
1000 AM CDT FRI AUG 26 2016

NOTE: "FAIR" INDICATES FEW OR NO CLOUDS BELOW 12,000 FEET WITH NO
SIGNIFICANT WEATHER AND/OR OBSTRUCTIONS TO VISIBILITY.

...SOUTH CENTRAL NEBRASKA...

CITY           SKY/WX    TMP DP  RH WIND       PRES   REMARKS
GRAND ISLAND   PTSUNNY   64  57  78 E8        30.16F
HASTINGS       PTSUNNY   63  57  81 E7        30.15F
KEARNEY        CLOUDY    63  57  82 E8        30.15F
ORD            PTSUNNY   62  56  80 E3        30.16S
YORK           CLOUDY    63  59  88 E6        30.15F
AURORA         CLOUDY    61  60  97 E5        30.15F
LEXINGTON      CLOUDY    63  56  79 E5        30.17S
HOLDREGE       CLOUDY    62  58  87 E7        30.15F FOG
HEBRON         PTSUNNY   66  61  86 NE9       30.11F

...NEBRASKA PANHANDLE...

CITY           SKY/WX    TMP DP  RH WIND       PRES   REMARKS
CHADRON        CLOUDY    56  54  93 NE5       30.13F
ALLIANCE       CLOUDY    56  53  90 SE9       30.13F
SCOTTSBLUFF    LGT RAIN  58  55  90 E13       30.10F
SIDNEY         CLOUDY    61  51  70 S14       30.16F

...WESTERN AND NORTH CENTRAL NEBRASKA...

CITY           SKY/WX    TMP DP  RH WIND       PRES   REMARKS
VALENTINE      CLOUDY    63  50  62 S7        30.18S
AINSWORTH      CLOUDY    65  57  77 S12       30.18F
ONEILL         MOSUNNY   69  54  58 SE5       30.18S
BROKEN BOW     CLOUDY    63  58  83 SE7       30.17S
IMPERIAL       PTSUNNY   65  56  72 S13       30.16F
NORTH PLATTE   CLOUDY    61  57  87 E7        30.16F
MCCOOK         MOSUNNY   62  57  83 E6        30.16F

...EASTERN NEBRASKA...

CITY           SKY/WX    TMP DP  RH WIND       PRES   REMARKS
NORFOLK        CLOUDY    62  57  83 E5        30.16F
SO SIOUX CITY  CLOUDY    63  57  81 CALM      30.17S
TEKAMAH        CLOUDY    63  59  87 NE3       30.15F
COLUMBUS       CLOUDY    61  52  72 E5        30.16F
ALBION         MOSUNNY   64  57  80 SE6       30.17F
OMAHA EPPLEY   CLOUDY    67  58  72 E16       30.14F
OFFUTT AFB     CLOUDY    65  61  85 E7        30.13F
MILLARD        CLOUDY    67  59  76 E5        30.14F
LINCOLN        CLOUDY    67  60  78 E8        30.14S
NEBRASKA CITY  DRIZZLE   63  63 100 E8        30.14F
BEATRICE       CLOUDY    65  61  86 E13       30.10F
FALLS CITY     LGT RAIN  65  63  93 E13G24    30.08F

...NORTHERN KANSAS...

CITY           SKY/WX    TMP DP  RH WIND       PRES   REMARKS
GOODLAND       CLOUDY    61  56  83 SE8       30.16F
HILL CITY      CLOUDY    63  60  90 E5        30.14F
NORTON         MOSUNNY   64  55  72 E6        30.14F
SMITH CENTER   MOSUNNY   66  61  82 CALM      30.13S
BELOIT         PTSUNNY   64  61  88 N9        30.09F
HAYS           CLOUDY    64  54  68 N7        30.11F
RUSSELL        LGT RAIN  64  62  93 N10       30.09F
CONCORDIA      LGT RAIN  64  62  93 E7        30.11R
SALINA         LGT RAIN  68  66  93 NE7       30.08S
TOPEKA         LGT RAIN  72  69  90 E9        30.07F



USA.gov is the U.S. government's official web portal to all federal, state and local government web resources and services.